Location: Gleizolles
(44.4833°N, 6.7667°E)
Time: 23:06:44
(UTC+00:00)

Courier 1B Rocket - Pass Details

Date: 26 June 2024
Orbit: 920 x 1201 km, 28.3° (Epoch: 23 July)

Event Time Altitude Azimuth Distance (km) Brightness Sun altitude
Exits shadow 01:52:26 18° 185° (S) 2,201 6.3 -15.3°
Maximum altitude 01:53:22 19° 174° (S) 2,183 6.4 -15.2°
Drops below altitude 10° 01:57:50 10° 133° (SE) 2,809 7.3 -14.8°
Sets 02:01:29 0° 116° (ESE) 3,820 8.2 -14.5°
